Monroe, NC

9:37 AM EST on January 18, 2018 (GMT -0500)
Monroe

Weather History for KEQY - April, 2012

Change the Weather History Date:

Thursday, April 5, 2012

  Actual Average (KCLT) Record (KCLT)
Temperature  
Mean Temperature 60 °F -  
Max Temperature 66 °F 66 °F 88 °F (1942)
Min Temperature 52 °F 45 °F 26 °F (1891)
Degree Days  
Heating Degree Days 6    
Growing Degree Days 10 (Base 50)    
Moisture  
Dew Point 55 °F    
Average Humidity 83    
Maximum Humidity 96    
Minimum Humidity 56    
Precipitation  
Precipitation 0.18 in - - ()
Sea Level Pressure  
Sea Level Pressure 29.74 in    
Wind  
Wind Speed 5 mph (NE)    
Max Wind Speed 16 mph    
Max Gust Speed 24 mph    
Visibility 10 miles    
Events Rain , Thunderstorm    
Averages and records for this station are not official NWS values.
T = Trace of Precipitation, MM = Missing Value Source: NWS Daily Summary

Daily Weather History Graph

Daily Weather History Graph

Search for Another Location

Airport or City:

Trip Planner

Search our weather history database for the weather conditions in past years. The results will help you decide how hot, cold, wet, or windy it might be!

Date:

Astronomy

Apr. 05, 2012 Rise Set
Actual Time 7:03 AM EDT 7:47 PM EDT
Civil Twilight 6:37 AM EDT 8:13 PM EDT
Nautical Twilight 6:07 AM EDT 8:43 PM EDT
Astronomical Twilight 5:36 AM EDT 9:14 PM EDT
Moon 6:51 PM EDT (4/5) 5:56 AM EDT (4/5)
Length of Visible Light 13h 35m
Length of Day
12h 44m
Waxing Gibbous, 98% of the Moon is Illuminated
Apr 5
Waxing Gibbous
Apr 6
Full
Apr 13
Last Quarter
Apr 21
New
Apr 29
First Quarter

Hourly Weather History & Observations

Time (EDT) Temp. Dew Point Humidity Pressure Visibility Wind Dir Wind Speed Gust Speed Precip Events Conditions
12:53 AM 62.1 °F 59.0 °F 90% 29.70 in 10.0 mi Calm Calm - N/A   Clear
1:53 AM 61.0 °F 59.0 °F 93% 29.69 in 10.0 mi Calm Calm - N/A   Clear
2:53 AM 60.1 °F 59.0 °F 96% 29.68 in 10.0 mi Calm Calm - N/A   Clear
3:53 AM 61.0 °F 59.0 °F 93% 29.67 in 10.0 mi Calm Calm - N/A   Clear
4:53 AM 62.1 °F 59.0 °F 90% 29.66 in 10.0 mi Calm Calm - N/A   Clear
5:53 AM 63.0 °F 60.1 °F 90% 29.66 in 10.0 mi Calm Calm - 0.00 in   Scattered Clouds
6:53 AM 63.0 °F 60.1 °F 90% 29.70 in 10.0 mi Calm Calm - N/A   Overcast
7:53 AM 64.0 °F 59.0 °F 84% 29.70 in 10.0 mi NNE 9.2 mph - 0.00 in   Overcast
8:53 AM 64.9 °F 59.0 °F 81% 29.73 in 10.0 mi NE 6.9 mph - N/A   Partly Cloudy
9:53 AM 66.9 °F 60.1 °F 79% 29.73 in 10.0 mi ENE 6.9 mph - N/A   Mostly Cloudy
10:53 AM 66.0 °F 59.0 °F 78% 29.77 in 10.0 mi NNE 15.0 mph - N/A   Overcast
11:53 AM 64.9 °F 57.0 °F 75% 29.77 in 10.0 mi NE 16.1 mph - N/A   Overcast
12:00 PM 64.4 °F 57.2 °F 77% 29.76 in 10.0 mi NE 15.0 mph - N/A   Mostly Cloudy
12:53 PM 64.0 °F 53.1 °F 67% 29.77 in 10.0 mi ENE 10.4 mph 17.3 mph N/A   Mostly Cloudy
1:53 PM 64.9 °F 51.1 °F 61% 29.77 in 10.0 mi ENE 8.1 mph - N/A   Overcast
2:53 PM 66.0 °F 51.1 °F 59% 29.75 in 10.0 mi ENE 9.2 mph - N/A   Partly Cloudy
3:53 PM 66.0 °F 50.0 °F 56% 29.72 in 10.0 mi ENE 11.5 mph 18.4 mph N/A   Clear
4:53 PM 64.0 °F 50.0 °F 60% 29.71 in 10.0 mi ENE 12.7 mph 17.3 mph N/A   Clear
5:53 PM 62.1 °F 50.0 °F 65% 29.75 in 10.0 mi NE 10.4 mph - N/A   Mostly Cloudy
6:53 PM 59.0 °F 51.1 °F 75% 29.79 in 10.0 mi NNE 5.8 mph - 0.03 in Rain Light Rain
7:14 PM 55.4 °F 51.8 °F 88% 29.80 in 3.0 mi ENE 3.5 mph - 0.07 in Rain , Thunderstorm Heavy Thunderstorms and Rain
7:29 PM 55.4 °F 53.6 °F 94% 29.77 in 5.0 mi ENE 6.9 mph - 0.12 in Rain Rain
7:53 PM 55.0 °F 53.1 °F 93% 29.78 in 9.0 mi NE 13.8 mph 24.2 mph 0.14 in Rain Light Rain
8:53 PM 54.0 °F 52.0 °F 93% 29.79 in 10.0 mi ENE 6.9 mph - 0.01 in Rain Light Rain
9:53 PM 53.1 °F 52.0 °F 96% 29.79 in 10.0 mi ENE 8.1 mph - 0.00 in   Overcast
10:14 PM 53.6 °F 51.8 °F 94% 29.78 in 10.0 mi Variable 4.6 mph - N/A   Overcast
10:45 PM 53.6 °F 51.8 °F 94% 29.78 in 10.0 mi ENE 8.1 mph - N/A   Mostly Cloudy
10:53 PM 53.1 °F 51.1 °F 93% 29.81 in 10.0 mi ENE 6.9 mph - N/A   Mostly Cloudy
11:53 PM 52.0 °F 50.0 °F 93% 29.81 in 10.0 mi ENE 6.9 mph - N/A   Overcast